Starlink 1392

operational
NORAD ID: 45677 Int'l Des: 2020-035 Owner: SPXS Country: US Constellation: starlink
LEOCIRCULARSTARLINK_TYPE

关于 Starlink 1392

正在加载描述...

实时位置

正在加载3D地球...

即将过境

高度历史

Altitude vs Time

uPlot chart will show altitude changes over time

两行轨道根数

1 45677U 20035W 25306.19357357 .00003611 00000-0 26125-3 0 9995
2 45677 53.0545 278.9730 0001730 90.8548 269.2639 15.06392175299516
Epoch: Nov 2, 2025 • Age: 17 hours

当前状态

高度 554.0 km
速度 7.58 km/s
星下点 -22.01°S, 114.88°W
发射日期 Jun 4, 2020
运行时间 5.4 years
类型 internet

技术详情

分类 Payload
质量 260.00 kg
干质量 248.00 kg
总质量 260.00 kg
长度 0.20 m
直径 2.80 m
跨度 9.00 m
形状 Box + pan
制造商 SPXS
平台类型 Starlink
阶段状态 In Orbit
所有者/国家 SPXS/US

大型星座

Loading constellations...